Location: Winnipauk Village
(41.1295°N, 73.4171°W)
Time: 19:05:00
(UTC+00:00)

X-37B - Pass Details

Date: 04 August 2021
Orbit: 381 x 393 km, 45.0° (Epoch: 29 August)

Event Time Altitude Azimuth Distance (km) Brightness Sun altitude
Exits shadow 08:25:29 28° 271° (W) 754 1.6 -14.8°
Maximum altitude 08:26:55 62° 343° (NNW) 432 0.8 -14.6°
Drops below altitude 10° 08:30:03 10° 66° (ENE) 1,398 4.7 -14.1°
Sets 08:32:08 0° 70° (ENE) 2,253 6.0 -13.8°
